Des Moines, IA

9:01 PM CDT on March 22, 2017 (GMT -0500)
Des Moines International

Weather History for KDSM - December, 2013

Change the Weather History Date:

Tuesday, December 24, 2013

  Actual Average Record
Temperature  
Mean Temperature 2 °F 24 °F  
Max Temperature 18 °F 32 °F 69 °F (1889)
Min Temperature -14 °F 16 °F -19 °F (1983)
Degree Days  
Heating Degree Days 63 41  
Month to date heating degree days 1060 917  
Since 1 July heating degree days 2263 2175  
Cooling Degree Days 0 0  
Month to date cooling degree days 0 0  
Year to date cooling degree days 1353 1066  
Moisture  
Dew Point -1 °F    
Average Humidity 68    
Maximum Humidity 84    
Minimum Humidity 52    
Precipitation  
Precipitation 0.02 in 0.04 in 0.96 in (1895)
Month to date precipitation 0.71 1.15  
Year to date precipitation 31.90 35.75  
Snow  
Snow 0.40 in 0.30 in 7.00 in (1909)
Month to date snowfall 12.2 7.1  
Since 1 July snowfall 13.6 10.0  
Snow Depth 5.00 in    
Sea Level Pressure  
Sea Level Pressure 30.37 in    
Wind  
Wind Speed 9 mph (SSE)    
Max Wind Speed 18 mph    
Max Gust Speed 22 mph    
Visibility 8 miles    
Events Snow    
T = Trace of Precipitation, MM = Missing Value Source: NWS Daily Summary

Daily Weather History Graph

Daily Weather History Graph

Search for Another Location

Airport or City:

Trip Planner

Search our weather history database for the weather conditions in past years. The results will help you decide how hot, cold, wet, or windy it might be!

Date:

Astronomy

Dec. 24, 2013 Rise Set
Actual Time 7:39 AM CST 4:49 PM CST
Civil Twilight 7:07 AM CST 5:21 PM CST
Nautical Twilight 6:32 AM CST 5:56 PM CST
Astronomical Twilight 5:59 AM CST 6:29 PM CST
Moon No Moon Rise 11:28 AM CST (12/24)
Length of Visible Light 10h 13m
Length of Day
9h 10m
Waning Gibbous, 58% of the Moon is Illuminated
Dec 24
Waning Gibbous
Dec 25
Last Quarter
Jan 1
New
Jan 7
First Quarter
Jan 15
Full

Hourly Weather History & Observations

Time (CST) Temp. Windchill Dew Point Humidity Pressure Visibility Wind Dir Wind Speed Gust Speed Precip Events Conditions
12:54 AM -6.0 °F -16.9 °F -17.0 °F 59% 30.62 in 10.0 mi WSW 4.6 mph - N/A   Clear
1:54 AM -6.0 °F -16.9 °F -18.0 °F 56% 30.61 in 10.0 mi WNW 4.6 mph - N/A   Clear
2:54 AM -7.1 °F - -18.0 °F 59% 30.62 in 10.0 mi Calm Calm - N/A   Clear
3:54 AM -6.0 °F - -17.0 °F 59% 30.58 in 10.0 mi Calm Calm - N/A   Clear
4:54 AM -9.9 °F -19.2 °F -18.9 °F 65% 30.57 in 10.0 mi SE 3.5 mph - N/A   Clear
5:54 AM -9.9 °F -26.3 °F -18.9 °F 65% 30.56 in 10.0 mi SE 8.1 mph - N/A   Clear
6:54 AM -11.9 °F -27.3 °F -20.0 °F 67% 30.55 in 10.0 mi SSE 6.9 mph - N/A   Clear
7:54 AM -11.9 °F -28.7 °F -20.9 °F 64% 30.56 in 10.0 mi South 8.1 mph - N/A   Partly Cloudy
8:54 AM -7.1 °F -25.0 °F -18.0 °F 59% 30.54 in 10.0 mi SSE 10.4 mph - N/A   Partly Cloudy
9:54 AM -2.9 °F -19.8 °F -15.0 °F 56% 30.54 in 10.0 mi South 10.4 mph - N/A   Mostly Cloudy
10:54 AM 1.9 °F -14.7 °F -11.0 °F 55% 30.52 in 10.0 mi South 11.5 mph - N/A   Overcast
11:54 AM 6.1 °F -10.2 °F -7.1 °F 55% 30.47 in 10.0 mi SSE 12.7 mph - N/A   Overcast
12:54 PM 9.0 °F -7.3 °F -5.1 °F 53% 30.42 in 10.0 mi SSE 13.8 mph - N/A   Overcast
1:54 PM 10.9 °F -4.1 °F -2.0 °F 56% 30.38 in 10.0 mi SSE 12.7 mph - N/A   Overcast
2:54 PM 12.9 °F -2.2 °F -0.0 °F 56% 30.32 in 7.0 mi SSE 13.8 mph - 0.00 in Snow Light Snow
3:54 PM 12.9 °F -2.8 °F 1.0 °F 59% 30.31 in 6.0 mi SE 15.0 mph - 0.00 in Snow Light Snow
4:08 PM 12.9 °F -2.2 °F 3.0 °F 65% 30.24 in 2.0 mi SE 13.8 mph - 0.00 in Snow Light Snow
4:20 PM 12.9 °F -2.2 °F 3.0 °F 65% 30.23 in 5.0 mi SE 13.8 mph - 0.00 in Snow Light Snow
4:54 PM 12.9 °F -2.2 °F 3.9 °F 67% 30.29 in 9.0 mi SE 13.8 mph - 0.01 in Snow Light Snow
5:01 PM 12.9 °F -2.2 °F 3.9 °F 67% 30.21 in 9.0 mi SE 13.8 mph - 0.00 in Snow Light Snow
5:12 PM 12.9 °F -2.2 °F 3.9 °F 67% 30.21 in 9.0 mi SSE 13.8 mph - 0.00 in Snow Light Snow
5:32 PM 14.0 °F 0.5 °F 3.9 °F 64% 30.22 in 9.0 mi SSE 11.5 mph - 0.00 in Snow Light Snow
5:54 PM 15.1 °F 1.1 °F 3.9 °F 61% 30.31 in 10.0 mi South 12.7 mph - 0.00 in   Overcast
6:54 PM 15.1 °F 3.3 °F 5.0 °F 64% 30.32 in 10.0 mi South 9.2 mph - N/A   Overcast
7:54 PM 15.1 °F 1.8 °F 6.1 °F 68% 30.31 in 9.0 mi SSE 11.5 mph - 0.00 in Snow Light Snow
8:54 PM 16.0 °F 3.6 °F 7.0 °F 68% 30.29 in 10.0 mi South 10.4 mph - 0.00 in Snow Light Snow
9:10 PM 17.1 °F 5.0 °F 8.1 °F 68% 30.22 in 9.0 mi South 10.4 mph - 0.00 in Snow Light Snow
9:54 PM 17.1 °F 5.8 °F 10.9 °F 77% 30.28 in 9.0 mi South 9.2 mph - 0.00 in Snow Light Snow
10:20 PM 17.1 °F 6.6 °F 12.0 °F 81% 30.21 in 5.0 mi South 8.1 mph - 0.00 in Snow Light Freezing Drizzle
10:54 PM 18.0 °F 7.7 °F 14.0 °F 84% 30.27 in 3.0 mi South 8.1 mph - 0.00 in Snow Light Snow
11:00 PM 18.0 °F 8.7 °F 15.1 °F 88% 30.20 in 1.5 mi South 6.9 mph - 0.00 in Snow Light Snow
11:04 PM 18.0 °F 8.7 °F 14.0 °F 84% 30.20 in 1.2 mi South 6.9 mph - 0.00 in Snow Light Freezing Drizzle
11:09 PM 18.0 °F 7.7 °F 14.0 °F 84% 30.19 in 2.0 mi South 8.1 mph - 0.00 in Snow Light Freezing Drizzle
11:16 PM 18.0 °F 7.7 °F 14.0 °F 84% 30.20 in 2.0 mi South 8.1 mph - 0.00 in Snow Light Snow
11:19 PM 18.0 °F 7.7 °F 15.1 °F 88% 30.20 in 4.0 mi South 8.1 mph - 0.01 in Snow Light Snow
11:54 PM 18.0 °F 11.1 °F 15.1 °F 88% 30.25 in 5.0 mi South 4.6 mph - 0.01 in Snow Light Snow